Regional Weather Roundup
Issued by NWS Kansas City/Pleasant Hill, MO

Home | Current Version | Previous Version | Graphics & Text | Print | Product List | Glossary Off
Versions: 1 2 3 4 5 6 7 8 9 10 11 12 13 14 15 16 17 18 19 20 21 22 23 24 25 26 27 28 29 30 31 32 33 34 35 36 37 38 39 40 41 42 43 44 45 46 47 48 49 50

784
ASUS43 KEAX 090010
RWREAX

WEATHER ROUNDUP FOR EASTERN KANSAS AND NORTHWEST MISSOURI
NATIONAL WEATHER SERVICE KANSAS CITY/PLEASANT HILL MO
600 PM CST THU DEC 08 2016

KSZ040-057-103>105-MOZ028-029-037-043-090100-
...KANSAS CITY METROPOLITAN AREA...

CITY           SKY/WX    TMP DP  RH WIND       PRES   REMARKS
K.C. INTL      PTCLDY    20   8  60 NW7       30.62R WCI  11
6HR MIN TEMP:  20; 6HR MAX TEMP:  25;

K.C. DOWNTOWN  CLEAR     24  10  55 NW6       30.64R WCI  17
6HR MIN TEMP:  23; 6HR MAX TEMP:  27;

LEES SUMMIT    CLEAR     21  10  62 MISG      30.62R
6HR MIN TEMP:  21; 6HR MAX TEMP:  26;

OLATHE - IXD   CLEAR     20  10  65 NW5       30.63R WCI  13
6HR MIN TEMP:  19; 6HR MAX TEMP:  26;

OLATHE - OJC   CLEAR     21  10  62 NW7       30.62R WCI  12
6HR MIN TEMP:  21; 6HR MAX TEMP:  25;

LAWRENCE       CLEAR     16   9  74 W6        30.65R WCI   7

$$

MOZ001>008-011>017-020>025-030>033-038>040-044>046-053-054-090100-
...NORTHERN AND CENTRAL MISSOURI...

CITY           SKY/WX    TMP DP  RH WIND       PRES   REMARKS
ST. JOSEPH     CLEAR     18   9  68 NW7       30.64R WCI   9
6HR MIN TEMP:  18; 6HR MAX TEMP:  26;

MOSBY          CLEAR     23  12  63 W6        30.63R WCI  16
WARRENSBURG    PTCLDY    21  12  68 W6        30.62S WCI  14
WHITEMAN AFB   PTCLDY    26  11  54 W8        30.61R WCI  17
6HR MIN TEMP:  21; 6HR MAX TEMP:  26;

CLINTON        PTCLDY    21  12  68 W5        30.63R WCI  15
SEDALIA        CLEAR     23  12  62 W10       30.61R WCI  12
6HR MIN TEMP:  23; 6HR MAX TEMP:  28;

WARSAW         NOT AVBL
CHILLICOTHE      N/A     23  10  57 NW7       30.61R WCI  15
6HR MIN TEMP:  23; 6HR MAX TEMP:  27; 6HR PCP:  0.01;

KIRKSVILLE     CLEAR     19  10  68 W7        30.55R WCI  10
6HR MIN TEMP:  19; 6HR MAX TEMP:  26;


$$

MOZ041-047>049-056>058-063>065-088>090-097-090100-
...EASTERN AND SOUTHERN MISSOURI...

CITY           SKY/WX    TMP DP  RH WIND       PRES   REMARKS
ST. LOUIS INTL PTCLDY    26  11  52 NW8       30.55R WCI  18
6HR MIN TEMP:  26; 6HR MAX TEMP:  31;

SPIRIT OF STL  CLEAR     25  13  60 NW9       30.56R WCI  15
COLUMBIA       CLEAR     23  11  60 W9        30.57R WCI  13
JEFFERSON CITY CLEAR     24  12  60 W8        30.61R WCI  15
ROLLA          CLEAR     22  12  65 NW9       30.54R WCI  12
OSAGE BEACH    CLEAR     24  13  62 NW8       30.60R WCI  15
SPRINGFIELD    CLEAR     23  12  62 NW6       30.58R WCI  16
BRANSON        PTCLDY    25  10  54 NW6       30.58R WCI  18
JOPLIN         CLEAR     24  14  65 NW8       30.64R WCI  15
WEST PLAINS    CLEAR     27  11  51 NW10      30.54R WCI  17

$$

IAZ060-094-KSZ022-034>040-054-083-096-NEZ052-066-093-090100-
...KANSAS...SOUTHEAST NEBRASKA AND IOWA...

CITY           SKY/WX    TMP DP  RH WIND       PRES   REMARKS
TOPEKA         CLEAR     23  10  57 W5        30.65S WCI  17
6HR MIN TEMP:  23; 6HR MAX TEMP:  28;

MANHATTAN      CLEAR     21  10  62 CALM      30.65S
EMPORIA        CLEAR     20  10  65 NW7       30.64S WCI  11
CHANUTE        CLEAR     23  13  65 NW6       30.65R WCI  16
WICHITA        PTCLDY    24   8  50 N8        30.64F WCI  15
OMAHA          CLEAR     19   7  59 NW8       30.63R WCI   9
LINCOLN        CLEAR     21   7  54 NW6       30.65R WCI  13
FALLS CITY     CLEAR     19  10  68 NW8       30.63S WCI   9
LAMONI         CLEAR     18   9  68 NW9       30.56R WCI   7
DES MOINES     CLEAR     21  10  62 NW10      30.55R WCI  10

$$





USA.gov is the U.S. government's official web portal to all federal, state and local government web resources and services.